Погода в Олекминске

Погода в Олекминске : погода сейчас, прогноз погоды и архив. Всё, что Вы хотите узнать о погоде в Олекминске!

Хотите узнать прогноз погоды в Олекминске? Тогда Вам сюда: Погода в Олекминске

Поиск расширенной информации на нашем сайте:

Другие новости

Новости СМИ2

Главная страница сайта

Новости сайта

03.07.2017

Напоминаем, что на нашем специализированном сайте Метеоцентр.Азия вы можете получить высокодетализированные автоматические прогнозы погоды по пунктам России, СНГ и мира в авиационном формате (включающие направление и скорость ветра, видимость, явления погоды, количество и форму облачности, нижнюю и верхнюю границу облачности).


Погода в Олекминске - сегодня

Время (UTC), дата Ветер
(°,м/с) 
Видим.   Явления Облачность Т
(°С)
Тd
(°С)
f(%) Тe
(°С)
Pmin
(гПа)
dP
(гПа)
Po
(мм)
O2
(г/м3)
Тmin Tmax R s Состояние
почвы
06 26.07.17 240 (ЮЗ) 20000 м  {ливн. осадки}  5/4 1000 м верхняя 
[Cu med, cong|Ci fib]
+23.1 +8.5 39 +23  1004.6  -1.5  734  271           
09 26.07.17 260 (З) 20000 м  слаб. ливневой дождь  10/4 600 м кучево-дожд., верхняя 
[Cb cap|Ci fib]
+20 +14 68 +28  1004  -1  733  272           
12 26.07.17 тихо ()   20000 м  местами туман поземный{гроза, ливн. осадки}  10/3 600 м верхняя 
[Sc|Ci fib]
+16.5 +14.9 90 +26  1004.2  0.1  733  275  +23.7       
15 26.07.17 240 (ЮЗ) 4000 м  дымка  10/3 600 м верхняя 
[Sc|Ci fib]
+11.9 +11.5 97 +17  1004.8  733  281           
18 26.07.17 тихо ()   20000 м  местами туман поземный  10/0 средняя, верхняя 
[Ac trans|Ci fib]
+10.7 +10.3 97 +13  1005  0.2  733  282           
21 26.07.17 230 (ЮЗ) 20000 м    10/0 средняя, верхняя 
[Ac trans|Ci fib]
+12.4 +12 97 +17  1005  733  280           
00 27.07.17 230 (ЮЗ) 20000 м    10/3 1000 м средняя, верхняя 
[Sc|Ac trans|Ci fib]
+16.8 +13.1 79 +24  1004.6  0.2  734  276  +10.7        влажная 
03 27.07.17 240 (ЮЗ) 20000 м    10/4 1000 м средняя, верхняя 
[Sc|Ac trans|Ci fib]
+19.5 +13.8 70 +28  1004.6  0.1  734  273           
06 27.07.17 240 (ЮЗ) 20000 м    10/4 1000 м верхняя 
[Cu med, cong|Ci fib]
+25.5 +13.2 46 +32  1002.9  -1  733  267           
09 27.07.17 330 (СЗ) 20000 м  слаб. ливневой дождь{гроза}  10/5 1000 м кучево-дожд., средняя, верхняя 
[Cb cap|Ac trans|Ci fib]
+16.9 +15.4 91 +28  1004.1  0.4  733  275           
12 27.07.17 040 (СВ) 20000 м  местами туман поземный{гроза, ливн. осадки}  10/4 1000 м кучево-дожд., средняя, верхняя 
[Cb cap|Ac trans|Ci fib]
+16.8 +16.1 96 +29  1005.2  1.1  734  275    +26.5     
15 27.07.17 тихо ()   20000 м  в посл. час ливневой дождь  10/4 1000 м кучево-дожд., верхняя 
[Cb cap|Ci fib]
+15 +14.5 97 +23  1005.6  0.2  734  277           
18 27.07.17 050 (СВ) 2000 м  дымка{ливн. осадки}  8/1 1000 м верхняя 
[Sc|Ci fib]
+12.7 +12.3 97 +19  1006  0.2  734  280           
21 27.07.17 060 (СВ) 0500 м  туман  ?/?  
+12.3 +12.3 100 +17  1006.2  734  281           
00 28.07.17 030 (СВ) 20000 м  {туман}  9/4 300 м верхняя 
[St|Ci fib]
+15.5 +14.3 93 +24  1005.7  -0.1  734  277  +11.7    0.8    влажная 
06 28.07.17 020 (С) 20000 м  {ливн. осадки}  10/6 600 м кучево-дожд., средняя, верхняя 
[Cb cap|Ac trans|Ci fib]
+18.8 +13.9 73 +26  1006.8  1.7  735  274           
09 28.07.17 030 (СВ) 4{11}  20000 м    10/8 300 м кучево-дожд., верхняя 
[Cb cap|Ci fib]
+16.6 +11.9 74 +21  1009.3  2.2  737  278           
12 28.07.17 040 (СВ) 3{10}  20000 м    10/3 600 м верхняя 
[Sc|Ci fib]
+12.6 +9.7 82 +13  1011.6  1.8  738  283    +20.8  0.0     
15 28.07.17 050 (СВ) 20000 м    10/3 1000 м средняя, верхняя 
[Sc|Ac trans|Ci fib]
+8.5 +8.1 97 +9  1013  739  287           
18 28.07.17 нст () 20000 м    10/3 1000 м средняя, верхняя 
[Sc|Ac trans|Ci fib]
+7.7 +7.3 97 +9  1014  740  289           
21 28.07.17 040 (СВ) 20000 м  слаб. ливневой дождь  10/4 100 м кучево-дожд., средняя, верхняя 
[Cb cap|Ac trans|Ci fib]
+8.7 +8.1 96 +9  1014.8  0.8  740  288           
00 29.07.17 050 (СВ) 20000 м  слаб. ливневой дождь  10/5 600 м кучево-дожд., средняя, верхняя 
[Cb cap|Ac trans|Ci fib]
+9.4 +8.4 93 +9  1015.4  0.6  741  287  +7.7    0.6    влажная 
03 29.07.17 040 (СВ) 20000 м  слаб. ливневой дождь  10/5 600 м кучево-дожд., средняя, верхняя 
[Cb cap|Ac trans|Ci fib]
+10.9 +9.3 90 +12  1014.7  -0.3  741  285           
06 29.07.17 050 (СВ) 10 км  слаб. ливневой дождь  10/8 300 м кучево-дожд., средняя 
[Cb cap|Ac trans]
+10.8 +9.8 94 +13  1013.8  -0.9  740  285           
09 29.07.17 тихо ()   10 км  слаб. дождь  10/10 300 м 
[Frnb|Ns]
+10.7 +8.7 87 +11  1012.7  -1.3  739  285           
Время (UTC), дата Ветер
(°,м/с) 
Видим.   Явления Облачность Т
(°С)
Тd
(°С)
f(%) Тe
(°С)
Pmin
(гПа)
dP
(гПа)
Po
(мм)
O2
(г/м3)
Тmin Tmax R s Состояние
почвы

Для получения пояснительной информации подведите курсор к названию столбца.

ПОГОДА в Олекминске - архив

Всё, что Вы хотите узнать о погоде в Олекминске - удобно и подробно!

Выберите нужную дату (начиная с 1 января 2015* года) и нажмите кнопку "Найти".
Будут отображены архивные сводки погоды по пункту Олекминск, начиная с указанной даты.


Отображать данные в формате CSV (для использования в таблицах Excel)


Внимание! Наш архив погоды предназначен исключительно для личного некоммерческого использования в познавательных целях. Если Вам необходимы официальные справки о состоянии погоды (для производственных, юридических, коммерческих и т.п. целей), обращайтесь в органы Росгидромета.

*Примечание: данная дата относится к архиву по метеостанциям СССР (Россия, СНГ, Балтия).
Архив по метеостанциям Зарубежной Европы и Азии (кроме Китая) хранится 10 дней, по другим регионам земного шара (Китай, Африка, Америка, Австралия, Океания) - 1 день.

Олекминск - район местоположения метеостанции


Название, широта, долгота, высота метеостанции:
Олекминск 60.4°ш. 120.4°д. 226 м над ур. моря [Российская Федерация]

Дополнительная информация

В oтличие oт бoльшинства пoгoдных сайтoв мы публикуем пoдрoбную метеoинфoрмацию в детальнoм прoфессиoнальнoм фoрмате.

Характеристики температуры и влажнoсти вoздуха измеряются на высoте 2 м в тени вдали oт зданий и деревьев.
Скoрoсть ветра измеряется на высoте 10 м (на урoвне рoста челoвека скoрoсть ветра ниже в 1.5-2 раза). Если метеoстанция нахoдится в гoрoде или в лесу, тo скoрoсть ветра занижена на 2-4 м/с пo сравнению с oткрытым местoм. Скoрoсть ветра над акватoриями крупных рек и oзёр, а также на вершинах хoлмoв на 2-5 м/с выше, чем в oбычных услoвиях.
Атмoсфернoе давление в разных тoчках местнoсти мoжет значительнo oтличаться oт давления на метеoстанции, в зависимoсти oт услoвий рельефа (при пoдъёме на 10 м давление пoнижается примернo на 1 мм рт.ст.).